| time (UTC) | temp F | wind direction | speed MPH | gust MPH | rain 1hr in | rain 24hr in | rain mn in | humidity % | barometer mb |
| 20260507061705 | 51 | 180 | 2.0 | 8.0 | 0.00 | 0.21 | 0.15 | 91 | 1009.8 |
| 20260507061208 | 51 | 249 | 2.0 | 8.0 | 0.00 | 0.21 | 0.15 | 91 | 1009.7 |
| 20260507060705 | 51 | 227 | 2.0 | 8.0 | 0.00 | 0.21 | 0.15 | 91 | 1009.6 |
| 20260507060205 | 51 | 254 | 2.0 | 7.0 | 0.00 | 0.21 | 0.15 | 91 | 1009.6 |
| 20260507055705 | 51 | 230 | 2.0 | 8.0 | 0.00 | 0.21 | 0.15 | 91 | 1009.6 |
| 20260507055205 | 50 | 214 | 2.0 | 8.0 | 0.00 | 0.21 | 0.15 | 91 | 1009.5 |
| 20260507054704 | 50 | 205 | 2.0 | 8.0 | 0.00 | 0.21 | 0.15 | 91 | 1009.5 |
| 20260507054205 | 50 | 234 | 2.0 | 7.0 | 0.00 | 0.21 | 0.15 | 91 | 1009.4 |
| 20260507053705 | 50 | 234 | 2.0 | 7.0 | 0.00 | 0.21 | 0.15 | 91 | 1009.4 |
| 20260507052705 | 50 | 213 | 2.0 | 5.0 | 0.00 | 0.21 | 0.15 | 91 | 1009.3 |
| 20260507052205 | 50 | 246 | 1.0 | 7.0 | 0.00 | 0.21 | 0.15 | 91 | 1009.2 |
| 20260507051705 | 50 | 246 | 2.0 | 7.0 | 0.00 | 0.21 | 0.15 | 91 | 1009.2 |
| 20260507051205 | 50 | 246 | 1.0 | 7.0 | 0.00 | 0.21 | 0.15 | 91 | 1009.2 |
| 20260507050705 | 50 | 237 | 1.0 | 7.0 | 0.00 | 0.21 | 0.15 | 91 | 1009.1 |
| 20260507050205 | 50 | 235 | 2.0 | 7.0 | 0.00 | 0.21 | 0.15 | 91 | 1009.1 |
| 20260507045704 | 50 | 227 | 2.0 | 8.0 | 0.00 | 0.21 | 0.15 | 91 | 1009.1 |
| 20260507045205 | 50 | 250 | 1.0 | 8.0 | 0.00 | 0.21 | 0.15 | 91 | 1009.1 |
| 20260507044705 | 50 | 244 | 1.0 | 8.0 | 0.00 | 0.21 | 0.15 | 91 | 1008.9 |
| 20260507044205 | 50 | 247 | 1.0 | 6.0 | 0.00 | 0.21 | 0.15 | 91 | 1008.9 |
| 20260507043705 | 50 | 236 | 0.0 | 0.0 | 0.00 | 0.21 | 0.15 | 91 | 1008.9 |
| 20260507043205 | 50 | 261 | 0.0 | 0.0 | 0.00 | 0.21 | 0.15 | 91 | 1008.8 |
| 20260507042705 | 50 | 250 | 0.0 | 5.0 | 0.00 | 0.21 | 0.15 | 91 | 1008.8 |
| 20260507042205 | 50 | 250 | 1.0 | 5.0 | 0.00 | 0.21 | 0.15 | 91 | 1008.7 |
| 20260507041705 | 50 | 219 | 1.0 | 5.0 | 0.00 | 0.21 | 0.15 | 91 | 1008.7 |
| 20260507041205 | 50 | 226 | 1.0 | 4.0 | 0.00 | 0.21 | 0.15 | 91 | 1008.5 |
| 20260507040705 | 50 | 270 | 0.0 | 3.0 | 0.00 | 0.21 | 0.15 | 91 | 1008.5 |
| 20260507035705 | 50 | 273 | 1.0 | 8.0 | 0.00 | 0.21 | 0.15 | 91 | 1008.4 |
| 20260507035344 | 50 | 244 | 2.0 | 8.0 | 0.00 | 0.21 | 0.15 | 91 | 1008.3 |
| 20260507033704 | 50 | 242 | 0.0 | 6.0 | 0.00 | 0.21 | 0.15 | 91 | 1008.3 |
| 20260507032705 | 50 | 259 | 1.0 | 7.0 | 0.00 | 0.21 | 0.15 | 91 | 1008.3 |
| 20260507031705 | 50 | 265 | 1.0 | 7.0 | 0.00 | 0.21 | 0.15 | 91 | 1008.2 |
| 20260507031205 | 50 | 233 | 1.0 | 10.0 | 0.00 | 0.21 | 0.15 | 91 | 1008.2 |
| 20260507030208 | 51 | 255 | 5.0 | 10.0 | 0.00 | 0.22 | 0.15 | 91 | 1008.1 |
| 20260507025205 | 51 | 257 | 5.0 | 10.0 | 0.00 | 0.22 | 0.15 | 91 | 1008.0 |
| 20260507024705 | 51 | 265 | 3.0 | 10.0 | 0.00 | 0.22 | 0.15 | 91 | 1008.0 |
| 20260507024205 | 51 | 240 | 2.0 | 5.0 | 0.00 | 0.22 | 0.15 | 91 | 1007.9 |
| 20260507023705 | 51 | 247 | 0.0 | 2.0 | 0.01 | 0.22 | 0.15 | 91 | 1007.9 |
| 20260507023206 | 51 | 254 | 0.0 | 5.0 | 0.02 | 0.22 | 0.15 | 91 | 1007.9 |
| 20260507021705 | 51 | 254 | 2.0 | 9.0 | 0.02 | 0.22 | 0.15 | 91 | 1007.9 |
| 20260507020705 | 51 | 254 | 4.0 | 12.0 | 0.02 | 0.22 | 0.15 | 91 | 1007.9 |
| 20260507020205 | 51 | 255 | 4.0 | 12.0 | 0.02 | 0.22 | 0.15 | 91 | 1007.8 |
| 20260507015705 | 52 | 247 | 2.0 | 7.0 | 0.02 | 0.22 | 0.15 | 91 | 1007.8 |
| 20260507014705 | 52 | 252 | 0.0 | 5.0 | 0.04 | 0.22 | 0.15 | 91 | 1007.8 |
| 20260507014205 | 52 | 252 | 0.0 | 7.0 | 0.03 | 0.21 | 0.14 | 91 | 1007.8 |
| 20260507013705 | 52 | 252 | 1.0 | 7.0 | 0.04 | 0.21 | 0.14 | 91 | 1007.7 |
| 20260507013205 | 52 | 252 | 2.0 | 8.0 | 0.04 | 0.20 | 0.13 | 91 | 1007.7 |
| 20260507011705 | 53 | 264 | 2.0 | 7.0 | 0.06 | 0.20 | 0.13 | 91 | 1007.7 |
| 20260507010231 | 53 | 248 | 0.0 | 5.0 | 0.08 | 0.20 | 0.13 | 91 | 1007.6 |
| 20260507005705 | 53 | 248 | 0.0 | 5.0 | 0.07 | 0.19 | 0.12 | 91 | 1007.5 |
| 20260507005205 | 53 | 248 | 1.0 | 5.0 | 0.08 | 0.19 | 0.12 | 91 | 1007.5 |
| 20260507004205 | 53 | 249 | 3.0 | 7.0 | 0.06 | 0.17 | 0.10 | 91 | 1007.5 |
| 20260507003705 | 53 | 250 | 3.0 | 8.0 | 0.07 | 0.17 | 0.10 | 91 | 1007.5 |
| 20260507003205 | 53 | 250 | 3.0 | 8.0 | 0.06 | 0.17 | 0.09 | 91 | 1007.5 |
| 20260507002705 | 53 | 233 | 1.0 | 8.0 | 0.06 | 0.17 | 0.09 | 91 | 1007.5 |
| 20260507001705 | 53 | 235 | 2.0 | 8.0 | 0.03 | 0.13 | 0.06 | 91 | 1007.4 |
| 20260507001205 | 53 | 227 | 3.0 | 8.0 | 0.02 | 0.13 | 0.06 | 91 | 1007.4 |
| 20260507000705 | 53 | 205 | 3.0 | 6.0 | 0.02 | 0.13 | 0.06 | 91 | 1007.4 |
| 20260507000205 | 53 | 227 | 2.0 | 6.0 | 0.02 | 0.12 | 0.05 | 91 | 1007.5 |
| 20260506235705 | 53 | 221 | 1.0 | 5.0 | 0.02 | 0.12 | 0.05 | 91 | 1007.5 |
| 20260506235205 | 53 | 248 | 2.0 | 6.0 | 0.02 | 0.11 | 0.04 | 91 | 1007.5 |
| 20260506234705 | 53 | 240 | 2.0 | 6.0 | 0.03 | 0.11 | 0.04 | 91 | 1007.5 |
| 20260506234205 | 53 | 240 | 1.0 | 6.0 | 0.02 | 0.10 | 0.03 | 91 | 1007.5 |
| 20260506233205 | 53 | 220 | 0.0 | 3.0 | 0.03 | 0.10 | 0.03 | 91 | 1007.4 |
| 20260506232705 | 53 | 226 | 0.0 | 4.0 | 0.03 | 0.10 | 0.03 | 91 | 1007.3 |
| 20260506232205 | 53 | 226 | 0.0 | 4.0 | 0.03 | 0.10 | 0.03 | 91 | 1007.3 |
| 20260506230205 | 53 | 226 | 1.0 | 5.0 | 0.02 | 0.09 | 0.02 | 91 | 1007.2 |
| 20260506225708 | 53 | 236 | 0.0 | 4.0 | 0.02 | 0.09 | 0.02 | 91 | 1007.2 |
| 20260506225205 | 54 | 237 | 1.0 | 7.0 | 0.02 | 0.09 | 0.02 | 91 | 1007.1 |
| 20260506224705 | 54 | 237 | 2.0 | 7.0 | 0.01 | 0.08 | 0.01 | 91 | 1007.1 |
| 20260506224205 | 54 | 229 | 3.0 | 7.0 | 0.00 | 0.07 | 0.00 | 91 | 1007.1 |
| 20260506223705 | 54 | 224 | 1.0 | 0.0 | 0.00 | 0.07 | 0.00 | 91 | 1007.1 |
| 20260506223206 | 54 | 157 | 0.0 | 0.0 | 0.00 | 0.07 | 0.00 | 91 | 1007.0 |
| 20260506222705 | 54 | 157 | 0.0 | 0.0 | 0.00 | 0.07 | 0.00 | 91 | 1007.0 |
| 20260506222205 | 54 | 157 | 0.0 | 0.0 | 0.00 | 0.07 | 0.00 | 91 | 1007.0 |
| 20260506221705 | 54 | 132 | 0.0 | 0.0 | 0.00 | 0.07 | 0.00 | 91 | 1007.0 |
| 20260506221206 | 54 | 132 | 0.0 | 0.0 | 0.00 | 0.07 | 0.00 | 91 | 1007.0 |
| 20260506220708 | 54 | 149 | 0.0 | 0.0 | 0.00 | 0.07 | 0.00 | 91 | 1006.9 |
| 20260506220205 | 54 | 149 | 0.0 | 0.0 | 0.00 | 0.07 | 0.07 | 91 | 1007.0 |
| 20260506215705 | 54 | 149 | 0.0 | 0.0 | 0.00 | 0.07 | 0.07 | 91 | 1007.0 |
| 20260506215205 | 54 | 149 | 0.0 | 0.0 | 0.00 | 0.07 | 0.07 | 91 | 1006.9 |
| 20260506214705 | 54 | 149 | 0.0 | 0.0 | 0.00 | 0.07 | 0.07 | 91 | 1006.9 |
| 20260506214207 | 54 | 149 | 0.0 | 0.0 | 0.01 | 0.07 | 0.07 | 91 | 1007.0 |
| 20260506213206 | 54 | 149 | 0.0 | 0.0 | 0.01 | 0.07 | 0.07 | 91 | 1007.0 |
| 20260506212705 | 54 | 149 | 0.0 | 0.0 | 0.01 | 0.07 | 0.07 | 91 | 1006.9 |
| 20260506211705 | 54 | 120 | 0.0 | 0.0 | 0.01 | 0.07 | 0.07 | 91 | 1006.8 |
| 20260506211205 | 54 | 120 | 0.0 | 0.0 | 0.01 | 0.07 | 0.07 | 91 | 1006.8 |
| 20260506210705 | 54 | 120 | 0.0 | 0.0 | 0.01 | 0.07 | 0.07 | 91 | 1006.8 |
| 20260506210205 | 54 | 120 | 0.0 | 0.0 | 0.01 | 0.07 | 0.07 | 91 | 1006.7 |
| 20260506205705 | 54 | 120 | 0.0 | 0.0 | 0.02 | 0.07 | 0.07 | 91 | 1006.6 |
| 20260506205205 | 54 | 121 | 0.0 | 0.0 | 0.02 | 0.07 | 0.07 | 91 | 1006.6 |
| 20260506204705 | 54 | 121 | 0.0 | 0.0 | 0.02 | 0.07 | 0.07 | 91 | 1006.6 |
| 20260506204205 | 54 | 121 | 0.0 | 0.0 | 0.02 | 0.06 | 0.06 | 91 | 1006.6 |
| 20260506203705 | 54 | 121 | 0.0 | 0.0 | 0.02 | 0.06 | 0.06 | 91 | 1006.5 |
| 20260506203205 | 54 | 121 | 0.0 | 0.0 | 0.02 | 0.06 | 0.06 | 91 | 1006.5 |
| 20260506202705 | 54 | 121 | 0.0 | 0.0 | 0.02 | 0.06 | 0.06 | 91 | 1006.5 |
| 20260506202205 | 55 | 121 | 0.0 | 0.0 | 0.02 | 0.06 | 0.06 | 91 | 1006.6 |
| 20260506201705 | 55 | 121 | 0.0 | 0.0 | 0.02 | 0.06 | 0.06 | 91 | 1006.5 |
| 20260506201205 | 55 | 121 | 0.0 | 0.0 | 0.02 | 0.06 | 0.06 | 91 | 1006.5 |
| 20260506200705 | 55 | 121 | 0.0 | 0.0 | 0.02 | 0.06 | 0.06 | 91 | 1006.5 |
| 20260506200205 | 55 | 121 | 0.0 | 0.0 | 0.01 | 0.06 | 0.06 | 91 | 1006.4 |
| 20260506195205 | 55 | 120 | 0.0 | 0.0 | 0.00 | 0.05 | 0.05 | 91 | 1006.3 |
| 20260506194705 | 55 | 119 | 0.0 | 0.0 | 0.00 | 0.05 | 0.05 | 91 | 1006.2 |
| 20260506194205 | 55 | 141 | 0.0 | 0.0 | 0.00 | 0.05 | 0.05 | 91 | 1006.2 |
| 20260506193705 | 55 | 133 | 0.0 | 0.0 | 0.00 | 0.05 | 0.05 | 91 | 1006.1 |
| 20260506193205 | 56 | 131 | 0.0 | 0.0 | 0.00 | 0.05 | 0.05 | 91 | 1006.1 |
| 20260506192705 | 56 | 131 | 0.0 | 0.0 | 0.00 | 0.05 | 0.05 | 90 | 1005.9 |
| 20260506192205 | 56 | 131 | 0.0 | 0.0 | 0.00 | 0.05 | 0.05 | 91 | 1005.8 |
| 20260506191705 | 56 | 131 | 0.0 | 0.0 | 0.00 | 0.05 | 0.05 | 91 | 1005.7 |
| 20260506190705 | 56 | 131 | 0.0 | 0.0 | 0.00 | 0.05 | 0.05 | 90 | 1005.5 |
| 20260506190205 | 56 | 131 | 0.0 | 0.0 | 0.00 | 0.05 | 0.05 | 90 | 1005.4 |
| 20260506185205 | 56 | 131 | 0.0 | 0.0 | 0.00 | 0.05 | 0.05 | 90 | 1005.2 |
| 20260506184705 | 56 | 131 | 0.0 | 0.0 | 0.00 | 0.05 | 0.05 | 90 | 1005.1 |
| 20260506184205 | 56 | 131 | 0.0 | 0.0 | 0.00 | 0.05 | 0.05 | 90 | 1005.0 |
| 20260506183705 | 56 | 131 | 0.0 | 0.0 | 0.00 | 0.05 | 0.05 | 90 | 1005.0 |
| 20260506183215 | 56 | 131 | 0.0 | 0.0 | 0.00 | 0.05 | 0.05 | 90 | 1004.9 |
| 20260506182705 | 57 | 131 | 0.0 | 0.0 | 0.00 | 0.05 | 0.05 | 90 | 1004.9 |
| 20260506182205 | 57 | 131 | 0.0 | 0.0 | 0.00 | 0.05 | 0.05 | 90 | 1004.9 |
| 20260506181704 | 57 | 131 | 0.0 | 0.0 | 0.00 | 0.05 | 0.05 | 90 | 1004.9 |
| 20260506180720 | 57 | 131 | 0.0 | 0.0 | 0.00 | 0.05 | 0.05 | 90 | 1004.9 |
| 20260506180205 | 57 | 131 | 0.0 | 0.0 | 0.01 | 0.06 | 0.05 | 90 | 1004.9 |
| 20260506175705 | 57 | 131 | 0.0 | 0.0 | 0.02 | 0.06 | 0.05 | 90 | 1004.8 |
| 20260506175205 | 57 | 131 | 0.0 | 0.0 | 0.02 | 0.06 | 0.05 | 89 | 1004.8 |
| 20260506174705 | 57 | 131 | 0.0 | 0.0 | 0.03 | 0.07 | 0.05 | 89 | 1004.7 |
| 20260506174205 | 58 | 131 | 0.0 | 0.0 | 0.04 | 0.08 | 0.05 | 89 | 1004.7 |
| 20260506173705 | 58 | 131 | 0.0 | 0.0 | 0.04 | 0.09 | 0.05 | 89 | 1004.7 |
| 20260506172205 | 58 | 131 | 0.0 | 0.0 | 0.04 | 0.13 | 0.05 | 87 | 1004.5 |
| 20260506171705 | 58 | 131 | 0.0 | 0.0 | 0.04 | 0.13 | 0.05 | 87 | 1004.5 |
| 20260506171205 | 59 | 131 | 0.0 | 0.0 | 0.04 | 0.17 | 0.05 | 86 | 1004.5 |
| 20260506165705 | 61 | 150 | 0.0 | 0.0 | 0.02 | 0.43 | 0.03 | 83 | 1004.6 |
| 20260506165205 | 61 | 65 | 0.0 | 0.0 | 0.02 | 0.43 | 0.02 | 80 | 1004.6 |
| 20260506164705 | 62 | 333 | 0.0 | 0.0 | 0.00 | 0.41 | 0.01 | 79 | 1004.5 |
| 20260506164205 | 63 | 333 | 0.0 | 0.0 | 0.00 | 0.41 | 0.01 | 77 | 1004.5 |
| 20260506163705 | 63 | 333 | 0.0 | 0.0 | 0.00 | 0.41 | 0.01 | 76 | 1004.5 |
| 20260506163224 | 64 | 34 | 0.0 | 0.0 | 0.00 | 0.41 | 0.01 | 74 | 1004.5 |
| 20260506162704 | 64 | 34 | 0.0 | 0.0 | 0.00 | 0.41 | 0.01 | 71 | 1004.5 |
| 20260506162225 | 64 | 34 | 0.0 | 0.0 | 0.00 | 0.41 | 0.01 | 71 | 1004.5 |
| 20260506160733 | 65 | 34 | 0.0 | 0.0 | 0.00 | 0.41 | 0.01 | 67 | 1004.5 |
| 20260506160220 | 65 | 34 | 0.0 | 0.0 | 0.00 | 0.41 | 0.01 | 63 | 1004.4 |
| 20260506155704 | 65 | 34 | 0.0 | 0.0 | 0.00 | 0.41 | 0.01 | 64 | 1004.4 |
| 20260506155205 | 66 | 34 | 0.0 | 0.0 | 0.00 | 0.41 | 0.01 | 66 | 1004.4 |
| 20260506154205 | 66 | 34 | 0.0 | 2.0 | 0.00 | 0.41 | 0.01 | 62 | 1004.4 |
| 20260506153705 | 66 | 34 | 0.0 | 2.0 | 0.00 | 0.41 | 0.01 | 62 | 1004.4 |
| 20260506152705 | 66 | 34 | 0.0 | 0.0 | 0.00 | 0.41 | 0.01 | 64 | 1004.3 |
| 20260506152205 | 66 | 34 | 0.0 | 0.0 | 0.00 | 0.41 | 0.01 | 63 | 1004.2 |
| 20260506151705 | 66 | 34 | 0.0 | 3.0 | 0.00 | 0.41 | 0.01 | 62 | 1004.3 |
| 20260506151208 | 66 | 34 | 0.0 | 4.0 | 0.00 | 0.41 | 0.01 | 62 | 1004.4 |
| 20260506150704 | 66 | 34 | 1.0 | 4.0 | 0.00 | 0.41 | 0.01 | 64 | 1004.3 |
| 20260506150205 | 66 | 34 | 0.0 | 4.0 | 0.00 | 0.41 | 0.01 | 64 | 1004.3 |
| 20260506145205 | 66 | 74 | 0.0 | 3.0 | 0.00 | 0.41 | 0.01 | 63 | 1004.4 |
| 20260506144705 | 66 | 84 | 0.0 | 1.0 | 0.00 | 0.41 | 0.01 | 66 | 1004.4 |
| 20260506144204 | 66 | 84 | 0.0 | 3.0 | 0.00 | 0.41 | 0.01 | 64 | 1004.4 |
| 20260506143708 | 66 | 84 | 0.0 | 3.0 | 0.00 | 0.41 | 0.01 | 63 | 1004.4 |
| 20260506143205 | 66 | 84 | 0.0 | 0.0 | 0.00 | 0.41 | 0.01 | 62 | 1004.5 |
| 20260506142705 | 66 | 111 | 0.0 | 0.0 | 0.00 | 0.41 | 0.01 | 63 | 1004.5 |
| 20260506142208 | 66 | 111 | 0.0 | 0.0 | 0.00 | 0.41 | 0.01 | 63 | 1004.5 |
| 20260506141705 | 66 | 111 | 0.0 | 0.0 | 0.00 | 0.41 | 0.01 | 65 | 1004.5 |
| 20260506141205 | 66 | 111 | 0.0 | 0.0 | 0.00 | 0.41 | 0.01 | 64 | 1004.6 |
| 20260506140705 | 65 | 111 | 0.0 | 0.0 | 0.00 | 0.41 | 0.01 | 65 | 1004.6 |
| 20260506140205 | 65 | 111 | 0.0 | 0.0 | 0.00 | 0.41 | 0.01 | 65 | 1004.7 |
| 20260506135705 | 65 | 111 | 0.0 | 0.0 | 0.00 | 0.41 | 0.01 | 63 | 1004.6 |
| 20260506135205 | 66 | 111 | 0.0 | 4.0 | 0.00 | 0.41 | 0.01 | 62 | 1004.7 |
| 20260506134205 | 66 | 245 | 0.0 | 4.0 | 0.00 | 0.41 | 0.01 | 63 | 1004.7 |
| 20260506133205 | 66 | 245 | 0.0 | 0.0 | 0.00 | 0.41 | 0.01 | 64 | 1004.8 |
| 20260506132205 | 65 | 245 | 0.0 | 3.0 | 0.00 | 0.41 | 0.01 | 66 | 1004.9 |
| 20260506131705 | 65 | 245 | 0.0 | 3.0 | 0.00 | 0.41 | 0.01 | 65 | 1004.9 |
| 20260506131205 | 65 | 245 | 0.0 | 3.0 | 0.00 | 0.41 | 0.01 | 66 | 1004.9 |
| 20260506130205 | 66 | 245 | 0.0 | 0.0 | 0.00 | 0.41 | 0.01 | 64 | 1005.0 |
| 20260506125705 | 66 | 245 | 0.0 | 5.0 | 0.00 | 0.41 | 0.01 | 63 | 1004.9 |
| 20260506125205 | 66 | 245 | 0.0 | 10.0 | 0.00 | 0.41 | 0.01 | 63 | 1005.1 |
| 20260506124705 | 66 | 245 | 2.0 | 10.0 | 0.00 | 0.41 | 0.01 | 64 | 1005.1 |
| 20260506124205 | 66 | 245 | 2.0 | 10.0 | 0.00 | 0.41 | 0.01 | 63 | 1005.0 |
| 20260506123708 | 66 | 262 | 0.0 | 0.0 | 0.00 | 0.41 | 0.01 | 65 | 1005.0 |
| 20260506123206 | 66 | 261 | 0.0 | 2.0 | 0.00 | 0.41 | 0.01 | 67 | 1005.1 |
| 20260506122705 | 66 | 261 | 0.0 | 2.0 | 0.00 | 0.41 | 0.01 | 66 | 1005.1 |
| 20260506122205 | 65 | 261 | 0.0 | 2.0 | 0.00 | 0.41 | 0.01 | 65 | 1005.2 |
| 20260506121705 | 65 | 261 | 0.0 | 7.0 | 0.00 | 0.41 | 0.01 | 66 | 1005.2 |
| 20260506121205 | 65 | 261 | 0.0 | 7.0 | 0.00 | 0.41 | 0.01 | 66 | 1005.2 |
| 20260506120722 | 65 | 261 | 2.0 | 7.0 | 0.00 | 0.41 | 0.01 | 66 | 1005.2 |
| 20260506120205 | 65 | 266 | 2.0 | 7.0 | 0.00 | 0.41 | 0.01 | 66 | 1005.4 |
| 20260506115704 | 64 | 238 | 1.0 | 6.0 | 0.00 | 0.41 | 0.01 | 70 | 1005.4 |
| 20260506114705 | 63 | 202 | 2.0 | 7.0 | 0.00 | 0.41 | 0.01 | 69 | 1005.5 |
| 20260506114205 | 64 | 200 | 3.0 | 7.0 | 0.00 | 0.41 | 0.01 | 68 | 1005.6 |
| 20260506113705 | 64 | 245 | 2.0 | 6.0 | 0.00 | 0.41 | 0.01 | 70 | 1005.5 |
| 20260506113205 | 64 | 212 | 2.0 | 6.0 | 0.00 | 0.41 | 0.01 | 68 | 1005.6 |
| 20260506112205 | 64 | 224 | 1.0 | 8.0 | 0.00 | 0.41 | 0.01 | 69 | 1005.6 |
| 20260506111705 | 64 | 261 | 1.0 | 9.0 | 0.00 | 0.41 | 0.01 | 70 | 1005.7 |
| 20260506110205 | 64 | 193 | 2.0 | 11.0 | 0.00 | 0.41 | 0.01 | 69 | 1005.7 |
| 20260506105205 | 64 | 275 | 5.0 | 9.0 | 0.00 | 0.41 | 0.01 | 69 | 1005.8 |
| 20260506104705 | 63 | 221 | 4.0 | 9.0 | 0.00 | 0.41 | 0.01 | 72 | 1005.9 |
| 20260506103705 | 63 | 203 | 5.0 | 9.0 | 0.00 | 0.41 | 0.01 | 71 | 1006.0 |
| 20260506102205 | 62 | 239 | 4.0 | 10.0 | 0.00 | 0.41 | 0.01 | 75 | 1006.0 |
| 20260506101704 | 62 | 196 | 5.0 | 11.0 | 0.00 | 0.41 | 0.01 | 74 | 1006.1 |
| 20260506101205 | 62 | 201 | 6.0 | 11.0 | 0.00 | 0.41 | 0.01 | 74 | 1006.1 |
| 20260506100705 | 61 | 202 | 5.0 | 11.0 | 0.00 | 0.41 | 0.01 | 74 | 1006.2 |
| 20260506100226 | 61 | 227 | 4.0 | 9.0 | 0.00 | 0.41 | 0.01 | 75 | 1006.1 |
| 20260506095706 | 61 | 244 | 5.0 | 8.0 | 0.00 | 0.41 | 0.01 | 75 | 1006.1 |
| 20260506095205 | 61 | 258 | 4.0 | 7.0 | 0.00 | 0.41 | 0.01 | 77 | 1006.2 |
| 20260506094705 | 60 | 210 | 3.0 | 8.0 | 0.00 | 0.41 | 0.01 | 78 | 1006.2 |
| 20260506094205 | 60 | 216 | 3.0 | 8.0 | 0.00 | 0.41 | 0.01 | 77 | 1006.0 |
| 20260506093705 | 60 | 256 | 4.0 | 11.0 | 0.00 | 0.41 | 0.01 | 78 | 1006.1 |
| 20260506093205 | 60 | 273 | 4.0 | 11.0 | 0.00 | 0.41 | 0.01 | 78 | 1006.1 |
| 20260506092704 | 60 | 310 | 3.0 | 11.0 | 0.00 | 0.41 | 0.01 | 78 | 1006.1 |
| 20260506092205 | 60 | 267 | 2.0 | 10.0 | 0.00 | 0.41 | 0.01 | 80 | 1006.2 |
| 20260506091705 | 61 | 300 | 4.0 | 10.0 | 0.00 | 0.41 | 0.01 | 78 | 1006.1 |
| 20260506090705 | 61 | 263 | 4.0 | 9.0 | 0.00 | 0.41 | 0.01 | 78 | 1006.1 |
| 20260506090208 | 61 | 261 | 5.0 | 9.0 | 0.00 | 0.41 | 0.01 | 80 | 1006.1 |
| 20260506085705 | 60 | 239 | 4.0 | 9.0 | 0.00 | 0.41 | 0.01 | 81 | 1006.1 |
| 20260506085205 | 60 | 208 | 4.0 | 8.0 | 0.00 | 0.41 | 0.01 | 81 | 1006.1 |
| 20260506084705 | 60 | 247 | 4.0 | 9.0 | 0.00 | 0.41 | 0.01 | 83 | 1006.1 |
| 20260506084205 | 59 | 277 | 4.0 | 11.0 | 0.00 | 0.41 | 0.01 | 85 | 1006.1 |
| 20260506083705 | 58 | 276 | 4.0 | 11.0 | 0.00 | 0.41 | 0.01 | 84 | 1006.2 |
| 20260506083205 | 58 | 269 | 3.0 | 11.0 | 0.00 | 0.41 | 0.01 | 84 | 1006.3 |
| 20260506082705 | 58 | 255 | 2.0 | 4.0 | 0.00 | 0.41 | 0.01 | 85 | 1006.2 |
| 20260506082205 | 58 | 269 | 1.0 | 5.0 | 0.00 | 0.41 | 0.01 | 85 | 1006.1 |
| 20260506081705 | 58 | 269 | 1.0 | 7.0 | 0.00 | 0.41 | 0.01 | 85 | 1006.1 |
| 20260506080705 | 58 | 248 | 4.0 | 10.0 | 0.00 | 0.41 | 0.01 | 85 | 1006.0 |
| 20260506080205 | 58 | 263 | 5.0 | 10.0 | 0.00 | 0.41 | 0.01 | 85 | 1005.9 |
| 20260506072705 | 57 | 268 | 0.0 | 7.0 | 0.00 | 0.41 | 0.01 | 90 | 1005.7 |
| 20260506072205 | 57 | 267 | 2.0 | 7.0 | 0.00 | 0.41 | 0.01 | 90 | 1005.7 |
| 20260506071705 | 56 | 267 | 2.0 | 7.0 | 0.00 | 0.41 | 0.01 | 90 | 1005.7 |
| 20260506071205 | 56 | 255 | 2.0 | 7.0 | 0.00 | 0.41 | 0.01 | 90 | 1005.7 |
| 20260506070705 | 56 | 257 | 3.0 | 7.0 | 0.00 | 0.41 | 0.01 | 90 | 1005.6 |
| 20260506070205 | 56 | 257 | 3.0 | 7.0 | 0.00 | 0.41 | 0.01 | 90 | 1005.6 |